Regional Weather Roundup
Issued by NWS Binghamton, NY

Home | Current Version | Previous Version | Text Only | Print | Product List | Glossary On
Versions: 1 2 3 4 5 6 7 8 9 10 11 12 13 14 15 16 17 18 19 20 21 22 23 24 25 26 27 28 29 30 31 32 33 34 35 36 37 38 39 40 41 42 43 44 45 46 47 48 49 50
000
ASUS41 KBGM 061210
RWRBGM
RWRBGM
BINGHAMTON REGIONAL WEATHER ROUNDUP
NATIONAL WEATHER SERVICE BINGHAMTON NY
700 AM EST FRI MAR 06 2015

Note: "fair" indicates few or no clouds below 12,000 feet with no
significant weather and/or obstructions to visibility.

* = Station(s) that does not report precipitation, such as rain,
snow, etc, also no thunder or fog.

!NYZ009-015>018-022>025-036-037-044>046-055>057-062-061300
...CENTRAL NEW YORK...

CITY           SKY/WX    TMP DP  RH WIND       PRES   REMARKS
BINGHAMTON     MOCLDY    -1  -5  82 W5        30.38S WCI -11
CORTLAND       LGT SNOW  -4  -6  92 CALM      30.44S
DANSVILLE      PTCLDY    -4 -10  75 S7        30.52R WCI -18
ELMIRA         MOCLDY    -4  -8  83 W6        30.49R WCI -16
ITHACA         PTCLDY   -10 -14  82 CALM      30.46R
MONTICELLO     PTCLDY     0  -2  92 W3        30.40R
NORWICH        CLEAR     -9 -15  77 CALM      30.47R
ONEONTA        LGT SNOW   0  -6  78 CALM      30.35S
PENN YAN       MOCLDY     1  -6  72 SW13      30.47R WCI -17
ROME           PTCLDY   -11 -15  82 CALM      30.52S FOG
SIDNEY         CLEAR     -6  -9  84 CALM      30.46S
SYRACUSE       LGT SNOW   0   0 100 S3        30.51R FOG
$$

!PAZ038>040-043-044-047-048-072-061300
...NORTHEAST PENNSYLVANIA...

CITY           SKY/WX    TMP DP  RH WIND       PRES   REMARKS
HAZLETON       PTCLDY     3  -4  72 CALM      30.43R
SCRANTON       PTCLDY     5  -5  63 CALM      30.46S
TOWANDA*       CLEAR     -2  -8  78 CALM      30.53R
$$
&&
KEY
WCI = WIND CHILL INDEX
VSB = VISIBILITY
HX  = HEAT INDEX
$$


USA.gov is the U.S. government's official web portal to all federal, state and local government web resources and services.